Back to race calendar

New Years Day 10k, Cleethorpes, Lincolnshire

1st January 2009

Results couresty of Cleethorpes AC
(This is a sortable table - click column heading)
Filter (choose one only!)
Surname:
Cat: Club:
PosNumForenameSurnameCatClubTime
1308RobertHODGESMKingston Upon Hull AC00:32:38
2306RichardBROWNMLouth Athletic Club00:32:54
3142JarrattPERKINSMKingston Upon Hull AC00:33:30
43NicholasMARSHM35Louth Athletic Club00:33:37
5324LeeMORGANM35South London Harriers00:34:18
643MichaelSPROTMHallamshire Harriers00:34:21
726GreganCLARKSONMKingston Upon Hull AC00:34:40
861GEMMASTEELFCharnwood AC00:34:50
977GlennNORTHM45Charnwood AC00:35:08
1049PaulEVISONM40Cleethorpes & District00:35:10
11363StanleyOWENM55Nene Valley Harriers00:35:52
12357RichardBATESONMUnattached00:35:53
13310PeteHUTCHINSONM50Wold Vets00:35:55
142NatalieFARROWFCleethorpes & District00:35:57
15223DavidPARKERMCleethorpes & District00:36:06
16197CliveGREYSONM40Redhill Road Runners00:36:07
17152PeterFIELDINGSMITHM35Beverley AC00:36:12
18356GoyROPERM45Norwich Road Runners00:36:13
19168MalcolmPAKERM45Louth Athletic Club00:36:20
20198MatthewMILSOMMHallamshire Harriers00:36:54
21343LisaMAWERF40Wetherby Runners AC00:36:57
2297CarolynHAYF35Redhill Road Runners00:37:05
23284NigelBOOTHM45Mablethorpe Running Club00:37:14
24307GaryTHOMASM35Wold Vets00:37:26
25218ColmMCCOYM45Lincoln Wellington AC00:37:29
26228DarrenSPENCERM35Unattached00:37:32
27145GarryPERKINSM50Wold Vets00:37:50
28266StevenMCCONNELL-WOODM45Hartsholme Runners00:38:01
29358JanineSTONESF35Mablethorpe Running Club00:38:03
30249ChristopherBROMFIELDM55Wold Vets00:38:06
31212DaphneELLMOREF55Wold Vets00:38:09
32232JoshuaREIDMScunthorpe & District AC00:38:17
33299JohnCOMRIEM45Rotherham Harriers00:38:21
3421PaulFREEMANM45Wold Vets00:38:22
35203BarryDODGEM55Unattached00:38:37
36199MichealMILSOMM40doncaster AC00:38:38
37171AndyLAKELANDM35South Yorkshire Police AC00:38:44
38136NathanGASCOIGNEMUnattached00:38:46
39248LeeSPINKM40Unattached00:38:51
40235PaulEDGARM40Scunthorpe & District AC00:38:55
41138ChristopherATKINMCleethorpes & District00:38:59
42252AndrewGARSIDEM40Wold Vets00:39:05
43312RichardHALLAMM40Mablethorpe Running Club00:39:09
4491JacquiDEWSF35holmfirth harriers00:39:13
4596TerryHAWLEYM60Rotherham Harriers00:39:25
4674PhilipJOHNSONM55Cleethorpes & District00:39:36
47291BrianFOXM45Hartsholme Runners00:39:37
48353TrevorGREENMCleethorpes & District00:39:38
49280SeanPOULTERM40doncaster AC00:39:40
50205RyanSTEVENSONMJLincoln Wellington AC00:39:41
51345PaulTHOMPSONM40Grimsby Triathlon Club00:39:41
5217DavidCOLEM50Wold Vets00:39:43
53341SteveTHOMASM35Louth Athletic Club00:39:47
54355TraceyCURLF45Norwich Road Runners00:39:49
55117AdamWRIGHTM40Redhill Road Runners00:39:52
56292SteveCAMPIONM45Lincoln Wellington AC00:39:55
5723STEVENGREENM50Wold Vets00:40:01
5864REECEROBINSONM35Benfleet Running Club00:40:02
5914MickCASEYM60Mablethorpe Running Club00:40:04
60283CraigTURRELLM45Unattached00:40:13
61214RobBUTLERM40Lincoln Wellington AC00:40:17
6285KeithVICKERSM45Louth Athletic Club00:40:23
63337MatthewBECKETTMUnattached00:40:30
6416DavidJACKSONM45Unattached00:40:34
65224PaulHALLAMM40Cleethorpes & District00:40:35
66230TonyHOOPERMCleethorpes & District00:40:38
67165DennisBROWNM60Wold Vets00:40:40
68360JohnGREENM55Wold Vets00:40:42
6919BrynnenMASSEYM45Unattached00:40:44
70226AndrewGRISTWOODM40Cleethorpes & District00:40:50
7170DaveJOBSONM50Unattached00:40:59
72153BeckyFIELDINGSMITHF35City of Hulll AC00:41:00
73124MichelleGREENF35Moray Road Runners00:41:01
74175MikeFRIENDM45Wold Vets00:41:08
75221AndrewMCCOYMLouth Athletic Club00:41:12
76236DavidHILLM35Haltemprice Road Running Club00:41:17
7794BOBNEWELLM70Scunthorpe & District AC00:41:19
78169PaulHORTONM40Wold Vets00:41:26
79239DavidWILSONM35Lincoln Wellington AC00:41:41
80269NickAISTHORPEM45Wold Vets00:41:48
81109PaulDIMBLEBYMUnattached00:41:49
8236MattHOLMESMUnattached00:42:01
83196JulieDONALDF35Beverley AC00:42:05
8490MazKHQUEIRYM35Stadium Runners00:42:12
85278AndyBLOWM45Wold Vets00:42:29
8663ROBERTSTOCKSM45Wold Vets00:42:39
876JohnHERRONM45Unattached00:42:43
88272NeilBARKERM45Ancholme Valley Athletic Club00:42:47
89298PeteCROWM45Louth Athletic Club00:42:48
90325PhilDAVISM35Unattached00:42:55
91216LawrenceOCONNORM35Royal Air Force00:43:15
9293StephenWINGATEM55Unattached00:43:18
93213PhilMAWM45Scunthorpe & District AC00:43:30
94149MarkLOVETTMMablethorpe Running Club00:43:31
95270MarkROBBM40Unattached00:43:34
96274JulieMASTERMANF45Goole Viking Striders00:43:35
97364GeorgeWRAITHM50Wold Vets00:43:36
98186KevinTAYLORM40doncaster AC00:43:38
99296ElizabethWOODSF60Wold Vets00:43:41
100332RobALLISONM35Cleethorpes & District00:43:43
101113HelenBROWNF35Totley Athletic Club00:43:46
102220DuncanMCCOYMUnattached00:43:50
103289SteveMOTTERSHEADM55South West Veterans AC00:43:53
104234PhilBINCHM40Unattached00:43:54
105164BarbaraBROWNF55Wold Vets00:43:55
106277DavidSMITHM45Wold Vets00:44:05
107191NickFORMANM45Cleethorpes & District00:44:09
108211KathrynPALMERF45Wold Vets00:44:10
109300JimHUDSONM55Wold Vets00:44:10
110178DavidNEEDHAMM60Hallamshire Harriers00:44:13
11168RichardLINGSM40Scunthorpe & District AC00:44:30
112155MarkALLITTM45Selby Stridders00:44:37
113111LewisBILTONMUnattached00:44:40
11495JulianATKINM35Cleethorpes & District00:44:40
11575PirjoKIVELAINENF45Cleethorpes & District00:44:44
116301EmmaWHITEF35Cleethorpes & District00:44:45
117247TraceyGIBSONF40Wold Vets00:44:46
11881DavidSMITHM40Unattached00:44:51
119330AndrewSHORTM40Unattached00:45:00
120260PaulSTUARTM40Unattached00:45:01
121251RobertMAWHOODM50South Yorkshire Police AC00:45:02
122225PaulGREENWOODM50Cleethorpes & District00:45:12
123322HowardRODDIEM45Unattached00:45:15
124174KeithLAMBM35Wold Vets00:45:18
125177ROGERLEWISM60Scunthorpe & District AC00:45:21
126229JohnCOLLINSM45Unattached00:45:22
127237PeterCULLUMM45Unattached00:45:24
128158SimonGIBNEYMUnattached00:45:25
129139IainCHALMERSM45Wold Vets00:45:25
13015DanielLOWNESM35Unattached00:45:27
131219AlisonMCCOYF45Louth Athletic Club00:45:27
13234ROBERTSMITHM45Lincoln Wellington AC00:45:33
13378RyanMALLOYMCharnwood AC00:45:40
13479KatieNORTHFCharnwood AC00:45:40
135110SimonBILTONM40Unattached00:45:41
13680HeatherNORTHF45Charnwood AC00:45:42
13762DARRENREVELLM40Pocklington Runners00:45:49
13812MartinWILLERTONM40Wold Vets00:46:01
1397AndrewSTONESM45Mablethorpe Running Club00:46:04
140297AnthonyFRASERM50Wold Vets00:46:36
141323NigelKITSONM35Unattached00:46:49
142105MarkJOHNSONM40Scunthorpe & District AC00:46:57
143195MelHOLLIESM60Scunthorpe & District AC00:47:01
144183KevinMCGILLOWAYM45Unattached00:47:12
145263JackieMONTGOMERYF40Blackheath & Bromley Harriers AC00:47:13
146338JanaNEWMANFYork Knavesmire Harriers00:47:19
147128ClaireCHARLTONFChippeham Harriers00:47:22
148231MichaelBLOWERSM55Wold Vets00:47:24
149326PaulFENTONM35Unattached00:47:25
15073ChrisGORDONM45Nene Valley Harriers00:47:27
151316JohnCAMERONM40Unattached00:47:29
152193AlexLAWRIEM50Unattached00:47:34
15318LaraDICKSONFUnattached00:47:44
154254AlisonBALLF40Cleethorpes & District00:47:45
155294RoySAXBYM60Cleethorpes & District00:47:49
15629AnthonyCHAFERM50Wold Vets00:47:54
157271TonyBARKERM45Wold Vets00:47:54
158285PaulLOVATTM40Scunthorpe & District AC00:47:58
15982EmmaBENFIELDF35Louth Athletic Club00:48:01
160264IanHARNESSM35Scunthorpe & District AC00:48:06
16127SamSOCKETTM50Steel City Striders00:48:20
162331TimBUTLERM35Unattached00:48:36
163302WalterKENTM45Unattached00:48:41
164125SamanthaRITSONF35Scunthorpe & District AC00:48:44
165259DerekMOFFATTM60Scunthorpe & District AC00:48:52
166314CraigPOPPLETONM45Unattached00:49:10
167190DarrenROWEMCleethorpes & District00:49:13
168102YvonneTWELVETREEF55Totley Athletic Club00:49:17
16986DavidCLARKEM40Unattached00:49:29
170293DouglasCRAGGSM60Wold Vets00:49:44
171349ClairePLUNKETTFHalifax Harriers00:49:49
172201HelenCLADINGBOWLFUnattached00:49:50
173346VickyTHOMASF35Wold Vets00:49:55
17466RogerNICHOLSONM35Unattached00:49:58
175182KevinLIDGARDM45Unattached00:49:59
176327JohnDIXM50Handsworth Roadhogs00:50:05
17765DaveGIBNEYM35Unattached00:50:10
178361GordonLUGSDINMUnattached00:50:14
179317PaulMURPHYM40Unattached00:50:20
180140KathleenDAVISF45Unattached00:50:27
181181KarlHOLMESM40Cleethorpes & District00:50:32
182262IanMONTGOMERYM40Blackheath & Bromley Harriers AC00:50:33
183100CherSUTTONFUnattached00:50:53
184340JennyLEATHERBARROWFUnattached00:50:54
185132AndrewNEWSAMM40Steel City Striders00:51:08
18654LewisWILMANM60Swaledale Road Runners00:51:13
187144MaureenPERKINSF50Wold Vets00:51:19
188176AngelaOVERSONFUnattached00:51:23
189303DavidTHOMPSONM40Unattached00:51:24
190166FionaJEXF40Unattached00:51:30
19176MalcomSIMONSM65Cleethorpes & District00:51:32
192154DavidGODDARDM60Thirsk & Sowerby Harriers00:51:35
193311PeterTARNM50Wold Vets00:51:42
1945GeorgeHERDM50Unattached00:51:44
195106TonyHOPKINSM60Unattached00:51:46
196329GrahamIRELANDMUnattached00:51:47
197194FionaLAWRIEF45Louth Athletic Club00:51:51
198179SeanLEWISMUnattached00:51:52
199258MartinLONGSHAWM55Unattached00:52:02
200275BarryFREERM60Wold Vets00:52:02
20158RachelMUSGROVEFUnattached00:52:03
20255MarkWILMANMRoyal Air Force00:52:04
20353HelenCOCKERILLFUnattached00:52:06
20451AnnaTHOMPSONF40Sleaford Striders00:52:08
205167ANTONYFOREMANM55Lincoln & District Runners00:52:09
206336StephenRISLEYM40Unattached00:52:09
207257KevinWEBSTERM40Unattached00:52:11
208243JamesNOBLEMUnattached00:52:14
209173MichaelREDDISHM40Unattached00:52:18
210282RichardCRAIGM50Wold Vets00:52:19
211335SarahDYERFUnattached00:52:22
212244MatthewTATEM40Unattached00:52:23
21344DouglasBAKERM60Eastern Vets00:52:25
21431LindaBENNINSONF45Unattached00:52:28
21552ALISTAIRWHITAKERM35sleaford Town Runners00:52:29
21622SusanGREENF55Wold Vets00:52:30
2174MickJAGGERM35Wold Vets00:52:32
218253GlynBOTFIELDM50Road Runners Club00:52:46
21971MikeGAMBLEM40Unattached00:52:50
220261AlanYOUNGMCleethorpes & District00:53:00
221287LindaPORTERF55Scunthorpe & District AC00:53:04
22269DavidROUSEM40Unattached00:53:05
223313RobTAYLORM35Unattached00:53:05
22467JimCURRIEM70Unattached00:53:30
22592MargaretWINGATEF55Unattached00:53:45
22628LouiseWHITEHURSTF45Steel City Striders00:53:46
227187GaryCRISPMUnattached00:53:49
228347AndreaJONESF40Unattached00:53:52
229342JulieCRIMMINSF45Unattached00:53:53
230305KevinDALEM40Steel City Striders00:53:54
231315RobinHARRISONM65Unattached00:53:54
232204RichardHANCOCKM65Unattached00:54:03
233295HowardJUSTICEMUnattached00:54:12
23499AlanWILLIAMSM55Unattached00:54:13
235127SteveDIXONM50Unattached00:54:22
236268DavidPULLANM60Scunthorpe & District AC00:54:32
23741DavidSCOTTM65Scunthorpe & District AC00:54:36
238217JULIELEEF45Unattached00:55:01
239192DavidAPPLEYARDM55Unattached00:55:02
24046MauriceFOXONM65Wold Vets00:55:47
241350StewartCRAIGM45Unattached00:56:40
24224GREGCLARKSONM55Unattached00:56:45
243359DianaWALLISF50Unattached00:56:48
244233NeilBARROWCLIFFM65Scunthorpe & District AC00:57:08
245123RichardTWIDALEM45Wakefield & District00:57:17
246290SusanMOTTERSHEADF45South West Veterans AC00:57:27
24711GRAHAMBENTONM50Maltby Running Club00:57:30
248120PhilipTWIDALEMUnattached00:57:48
249250JohnHORTONM65Unattached00:57:49
25059HelenREVELLF35Pocklington Runners00:57:59
251333GrahamBELLM40Unattached00:58:39
252334RichardDYERM40Unattached00:58:39
25389MICKWATSONM55Unattached00:58:41
254147JaneGEORGEF50Unattached00:58:46
255241DavePERRYM50Unattached00:58:48
25630PaulBENNISONM40Unattached00:59:39
257141LydiaWALTONF45Unattached00:59:39
258161LeePHILIPSMUnattached00:59:41
25939GeorgiaTWYNHAMF35Unattached00:59:56
26038NeilTOYNEM50Unattached01:00:20
261209JimmyDUTCHM65Cleethorpes & District01:00:21
26240TonyMCGILLOWAYM55Unattached01:00:39
263185SharonROBEYF35Unattached01:01:06
264279TaniaMURDOCHF35Unattached01:01:08
265180JaneOUGHTONF45Abbey Runners01:01:09
26672HelenLEACHF40York Knavesmire Harriers01:01:29
26798BarryEVERETTM65Wold Vets01:01:58
268134ChristopherNEWSAMM35Unattached01:02:02
26987GrantCARTWRIGHTMUnattached01:02:34
27048EricNORTHM75Wold Vets01:03:32
27157KatieHEADINGFBarton & District01:03:52
272118PaulTAYLORM40Unattached01:04:28
273267SamanthaJENSENFUnattached01:04:45
274172PamelaSHERLOCKF65Thirsk & Sowerby Harriers01:04:45
275150SusanHALLF35Scunthorpe & District AC01:04:49
276108SianCARNELLFScunthorpe & District AC01:04:49
2779SueFERRANDF40Cleethorpes & District01:06:21
278148MichaelGEORGEM55Unattached01:06:35
279163AlexMATTHEWSM40Unattached01:06:52
280162HelenMATTHEWSF35Unattached01:06:53
281245SarahTATEF35Unattached01:07:53
282188NatalieWILLIAMSFUnattached01:07:53
283242LouiseFAWCETTFUnattached01:07:57
28425SUZANNECLARKSONF50West Hull Ladies01:08:27
285170SarahLAKELANDFTickhill R.A.C01:08:28
28642EmmaADDENBROOKEFUnattached01:09:20
287133MichaelNEWSAMM65Steel City Striders01:09:31
288240NickyROBINSONFBarton & District01:10:15
289119KarenTAYLORF35Unattached01:11:33
29032DianeEKEF50Scunthorpe & District AC01:12:24
29110NigelLEACHM40Cleethorpes & District01:14:54
29233ANGELINEJONESF70Unattached01:15:44
29345JaniceBAKERF60Eastern Vets01:17:39
294156JohnREVILLM55Garden City Runners01:19:39
29550DennisHOLTM80Cleethorpes & District01:20:05

Back to year index - Top of page